Other Public Products
Issued by NWS Charleston, SC

Home | Current Version | Previous Version | Text Only | Print | Product List | Glossary On
Versions: 1 2 3 4 5 6 7 8 9 10 11 12 13 14 15 16 17 18 19 20 21 22 23 24 25 26 27 28 29 30 31 32 33 34 35 36 37 38 39 40 41 42 43 44 45 46 47 48 49 50
000
FPUS82 KCHS 080527
OPUCHS

TEST...KCHS/KSAV Gateway Observations...TEST
National Weather Service Charleston SC
1200 AM EST THU DEC 08 2016

NOTE: "fair" indicates few or no clouds below 12,000 feet with no
significant weather and/or obstructions to visibility.

SCZ050-WAZ558-NCZ071-TXZ119-213-PAZ071-DCZ001-FLZ074-172-MI076-
NYZ176-178-MAZ016-IL014-TNZ027-NJZ106-GAZ044-MD014-080600-
...Gateway Observations for Charleston International...

CITY           SKY/WX    TMP DP  RH WIND       PRES   REMARKS
Chas Airport   CLOUDY    53  50  89 CALM      30.09F
Seattle        CLEAR     32  15  49 NE10      30.30F WCI  24
Charlotte      CLOUDY    51  47  86 SW5       30.06F
Dallas DFW     CLOUDY    41  36  82 N16       30.34R
Dallas Love    CLOUDY    43  36  76 N18       30.36R
Philladelphia  CLOUDY    39  33  79 SW6       30.05F WCI  35
Wash National  PTCLDY    40  35  83 SW3       30.09S
Baltimore      CLOUDY    32  31  96 CALM      30.06F
Miami          LGT RAIN  76  73  91 N10G16    30.08R FOG
Detroit        CLOUDY    31  21  66 SW14      30.04S WCI  21
Newark         MOCLDY    38  33  82 SW6       30.02F WCI  33
Laguardia      CLOUDY    45  35  68 SW5       30.01F
J F K          MOCLDY    42  35  76 SW7       30.02F
Boston Logan   MOCLDY    37  34  89 SW8       29.97F WCI  31
Ft. Lauderdale CLOUDY    78  75  90 CALM      30.06F
Chicago O`Hare FLURRIES  24  15  68 W17G29    30.14S WCI  11
Chicago Midway FLURRIES  25  13  60 W17G30    30.16S WCI  12
Houston Bush   CLOUDY    56  54  93 N9        30.18R
Houston Hobby  LGT RAIN  57  55  93 N14       30.15R FOG
Nashville      CLOUDY    40  24  53 N10       30.24R WCI  33
Atlanta        PTCLDY    45  41  86 NW9       30.11S

$$

GAZ044-118-TXZ119-213-NCZ071-DCZ001-MDZ014-506-PAZ021-071-NJZ106-
NYZ176-178-MAZ106-OHZ011-021-055-MIZ076-KYZ091-ILZ014-INZ047-
MNZ060-080600-
...Gateway Observations for Savannah International...

CITY           SKY/WX    TMP DP  RH WIND       PRES   REMARKS
Savannah Arpt  CLOUDY    57  54  89 W5        30.10S
Atlanta        PTCLDY    45  41  86 NW9       30.11S
Charlotte      CLOUDY    51  47  86 SW5       30.06F
Dallas DFW     CLOUDY    41  36  82 N16       30.34R
Houston Bush   CLOUDY    56  54  93 N9        30.18R
Wash National  PTCLDY    40  35  83 SW3       30.09S
Wash Dulles    CLOUDY    30  28  92 CALM      30.07F
Baltimore      CLOUDY    32  31  96 CALM      30.06F
Philadelphia   CLOUDY    39  33  79 SW6       30.05F WCI  35
Newark         MOCLDY    38  33  82 SW6       30.02F WCI  33
Laguardia      CLOUDY    45  35  68 SW5       30.01F
J F K          MOCLDY    42  35  76 SW7       30.02F
Boston         MOCLDY    37  34  89 SW8       29.97F WCI  31
Pittsburg      CLOUDY    35  22  58 W3        30.04F
Akron          CLOUDY    32  22  66 W10       30.05S WCI  24
Cleveland      CLOUDY    33  22  63 W18       30.08S WCI  22
Cincinnati     CLOUDY    34  23  64 NW13      30.16S WCI  25
Columbus         N/A     33  25  74 W7        30.13S WCI  26
Detroit        CLOUDY    31  21  66 SW14      30.04S WCI  21
Chicago O`Hare FLURRIES  24  15  68 W17G29    30.14S WCI  11
Minneapolis    FLURRIES  16   8  71 W20G25    30.14R WCI  -1
Indianapolis   PTCLDY    27  21  78 W9        30.19R WCI  18

$$




USA.gov is the U.S. government's official web portal to all federal, state and local government web resources and services.